TIGER-6

operational
NORAD ID: 58272 Int'l Des: 2023-174 Owner: OQT Country: L
LEOCIRCULARRETROGRADE

Über TIGER-6

Beschreibung wird geladen...

Live-Position

3D-Globus wird geladen...

Nächste Überflüge

Höhenverlauf

Altitude vs Time

uPlot chart will show altitude changes over time

Zweizeiliger Elementsatz

1 58272U 23174S 26062.16053211 .00111758 00000-0 10319-2 0 9995
2 58272 97.3926 155.0025 0003821 172.6428 187.4890 15.67220579129614
Epoch: 3. März 2026 • Age: 19 hours

Aktueller Status

Höhe 388.2 km
Geschwindigkeit 7.67 km/s
Subsatellitenpunkt -50.88°S, 78.87°E
Startdatum 11. Nov. 2023
Alter 2.3 years
Typ other

Technische Details

Klassifizierung Payload
Masse 10.00 kg
Trockenmasse 10.00 kg
Gesamtmasse 10.00 kg
Länge 0.30 m
Durchmesser 0.20 m
Spannweite 0.30 m
Form Box+2 pan
Hersteller SPINV
Bus-Typ Cubesat 6U
Phasenstatus In Orbit
Besitzer/Staat OQT/L

Große Konstellationen

Loading constellations...